Location: Gro�bocka
(50.8204°N, 11.9702°E)
Time: 05:58:34
(UTC+00:00)

GENESIS II - Pass Details

Date: 29 October 2020
Orbit: 490 x 536 km, 64.5° (Epoch: 01 December)

Event Time Altitude Azimuth Distance (km) Brightness Sun altitude
Rises 16:36:58 0° 222° (SW) 2,676 8.8 -7.7°
Reaches altitude 10° 16:39:09 10° 224° (SW) 1,791 7.9 -8.0°
Maximum altitude 16:43:11 82° 312° (NW) 549 4.4 -8.7°
Drops below altitude 10° 16:47:14 10° 41° (NE) 1,801 6.5 -9.3°
Enters shadow 16:47:53 - 41° (NE) 2,061 6.8 -9.4°
